Location: Arbon
(43.0005°N, 0.7472°E)
Time: 11:43:56
(UTC+00:00)

Cosmos 44 - Pass Details

Date: 22 April 2026
Orbit: 568 x 782 km, 65.1° (Epoch: 16 May)

Event Time Altitude Azimuth Distance (km) Brightness Sun altitude
Rises 20:42:08 0° 229° (SW) 3,067 6.8 -19.2°
Reaches altitude 10° 20:44:30 10° 236° (SW) 2,186 6.0 -19.5°
Maximum altitude 20:49:20 47° 310° (NW) 976 4.5 -20.2°
Drops below altitude 10° 20:54:28 10° 24° (NNE) 2,308 6.2 -20.9°
Sets 20:57:01 0° 30° (NNE) 3,256 6.9 -21.2°
